Valley City, ND

7:52 AM CST on December 06, 2019 (GMT -0600)
Valley City

Weather History for KBAC - October, 2019

Change the Weather History Date:

Tuesday, October 15, 2019

  Actual Average (KJMS) Record (KJMS)
Temperature  
Mean Temperature 37 °F -  
Max Temperature 39 °F 52 °F 89 °F (1953)
Min Temperature 35 °F 32 °F 17 °F (1909)
Degree Days  
Heating Degree Days 28    
Moisture  
Dew Point 37 °F    
Average Humidity 99    
Maximum Humidity 100    
Minimum Humidity 93    
Precipitation  
Precipitation 0.00 in - - ()
Sea Level Pressure  
Sea Level Pressure 30.02 in    
Wind  
Wind Speed 9 mph (NW)    
Max Wind Speed 18 mph    
Max Gust Speed 24 mph    
Visibility 9 miles    
Events Fog , Rain    
Averages and records for this station are not official NWS values.
T = Trace of Precipitation, MM = Missing Value Source: NWS Daily Summary

Daily Weather History Graph

Daily Weather History Graph

Search for Another Location

Airport or City:

Astronomy

Oct. 15, 2019 Rise Set
Actual Time 7:49 AM CDT 6:45 PM CDT
Civil Twilight 7:19 AM CDT 7:15 PM CDT
Nautical Twilight 6:43 AM CDT 7:50 PM CDT
Astronomical Twilight 6:08 AM CDT 8:26 PM CDT
Moon 8:00 PM CDT (10/15) 9:25 AM CDT (10/15)
Length of Visible Light 11h 56m
Length of Day
10h 55m
Full, 97% of the Moon is Illuminated
Oct 15
Full
Oct 21
Last Quarter
Oct 27
New
Nov 4
First Quarter
Nov 12
Full

Hourly Weather History & Observations

Time (CDT) Temp. Windchill Dew Point Humidity Pressure Visibility Wind Dir Wind Speed Gust Speed Precip Events Conditions
12:15 AM 35.6 °F - 35.6 °F 100% 29.88 in 10.0 mi Calm Calm - N/A   Overcast
12:35 AM 37.4 °F 32.8 °F 37.4 °F 100% 29.87 in 10.0 mi SSE 5.8 mph - N/A   Overcast
12:55 AM 37.4 °F 32.1 °F 37.4 °F 100% 29.85 in 10.0 mi East 6.9 mph - N/A   Overcast
1:15 AM 37.4 °F 32.1 °F 37.4 °F 100% 29.85 in 9.0 mi ESE 6.9 mph - N/A Rain Light Rain
1:35 AM 37.4 °F 32.1 °F 37.4 °F 100% 29.85 in 10.0 mi ESE 6.9 mph - N/A   Overcast
1:55 AM 37.4 °F 32.1 °F 37.4 °F 100% 29.88 in 10.0 mi SW 6.9 mph - N/A   Overcast
2:15 AM 37.4 °F 34.9 °F 37.4 °F 100% 29.87 in 10.0 mi South 3.5 mph - N/A   Overcast
2:35 AM 37.4 °F 33.8 °F 37.4 °F 100% 29.87 in 10.0 mi South 4.6 mph - N/A   Overcast
2:55 AM 37.4 °F 33.8 °F 37.4 °F 100% 29.87 in 10.0 mi SSE 4.6 mph - N/A   Overcast
3:15 AM 35.6 °F 30.7 °F 35.6 °F 100% 29.87 in 10.0 mi South 5.8 mph - N/A   Overcast
3:35 AM 35.6 °F 30.7 °F 35.6 °F 100% 29.87 in 10.0 mi SSW 5.8 mph - N/A   Overcast
3:55 AM 35.6 °F 30.7 °F 35.6 °F 100% 29.87 in 10.0 mi SW 5.8 mph - N/A   Overcast
4:15 AM 35.6 °F 30.7 °F 35.6 °F 100% 29.87 in 10.0 mi SSW 5.8 mph - N/A   Overcast
4:35 AM 35.6 °F 29.2 °F 35.6 °F 100% 29.87 in 10.0 mi WSW 8.1 mph - N/A   Overcast
4:55 AM 37.4 °F 30.3 °F 37.4 °F 100% 29.88 in 10.0 mi WNW 10.4 mph - N/A   Overcast
5:15 AM - - - N/A% 29.88 in 10.0 mi WNW 12.7 mph - N/A   Overcast
5:35 AM 37.4 °F 28.9 °F 37.4 °F 100% 29.88 in 10.0 mi WNW 13.8 mph - N/A   Overcast
5:55 AM 37.4 °F 29.8 °F 37.4 °F 100% 29.89 in 10.0 mi NW 11.5 mph - N/A   Overcast
6:15 AM 37.4 °F 29.8 °F 37.4 °F 100% 29.89 in 10.0 mi WNW 11.5 mph 17.3 mph N/A   Overcast
6:35 AM 37.4 °F 29.8 °F 37.4 °F 100% 29.89 in 10.0 mi WNW 11.5 mph 17.3 mph N/A   Overcast
6:55 AM 37.4 °F 28.5 °F 37.4 °F 100% 29.89 in 10.0 mi WNW 15.0 mph - N/A   Overcast
7:15 AM 35.6 °F 26.6 °F 35.6 °F 100% 29.89 in 10.0 mi WNW 13.8 mph 19.6 mph N/A   Overcast
7:35 AM 35.6 °F 27.1 °F 35.6 °F 100% 29.90 in 10.0 mi WNW 12.7 mph 21.9 mph N/A   Overcast
7:55 AM 35.6 °F 26.2 °F 35.6 °F 100% 29.90 in 9.0 mi NW 15.0 mph 20.7 mph N/A   Overcast
8:15 AM 35.6 °F 25.9 °F 35.6 °F 100% 29.91 in 6.0 mi NW 16.1 mph 21.9 mph N/A   Overcast
8:35 AM 35.6 °F 27.1 °F 35.6 °F 100% 29.92 in 5.0 mi NW 12.7 mph - N/A   Overcast
8:55 AM 35.6 °F 27.1 °F 35.6 °F 100% 29.92 in 4.0 mi NW 12.7 mph - N/A   Overcast
9:15 AM 35.6 °F 27.1 °F 35.6 °F 100% 29.93 in 4.0 mi NW 12.7 mph - N/A   Overcast
9:35 AM 35.6 °F 28.0 °F 35.6 °F 100% 29.94 in 2.5 mi NW 10.4 mph 16.1 mph N/A   Overcast
9:55 AM 35.6 °F 28.0 °F 35.6 °F 100% 29.94 in 0.8 mi NW 10.4 mph - N/A   Light Drizzle
10:15 AM 35.6 °F 28.0 °F 35.6 °F 100% 29.95 in 0.8 mi NNW 10.4 mph - N/A   Overcast
10:35 AM 35.6 °F 27.1 °F 35.6 °F 100% 29.97 in 0.2 mi NNW 12.7 mph - N/A Fog Fog
10:55 AM 35.6 °F 27.5 °F 35.6 °F 100% 29.97 in 0.8 mi North 11.5 mph - N/A   Overcast
11:15 AM 35.6 °F 27.5 °F 35.6 °F 100% 29.99 in 3.0 mi North 11.5 mph - N/A   Overcast
11:35 AM 37.4 °F 29.8 °F 37.4 °F 100% 30.01 in 5.0 mi North 11.5 mph - N/A   Overcast
11:55 AM 37.4 °F 29.8 °F 37.4 °F 100% 30.02 in 2.5 mi North 11.5 mph - N/A   Mostly Cloudy
12:15 PM 37.4 °F 29.3 °F 37.4 °F 100% 30.03 in 7.0 mi North 12.7 mph - N/A   Light Drizzle
12:35 PM 37.4 °F 29.8 °F 37.4 °F 100% 30.04 in 5.0 mi North 11.5 mph - N/A   Light Drizzle
12:55 PM 37.4 °F 28.5 °F 37.4 °F 100% 30.05 in 8.0 mi North 15.0 mph - N/A   Light Drizzle
1:15 PM 37.4 °F 30.3 °F 37.4 °F 100% 30.06 in 9.0 mi North 10.4 mph 17.3 mph N/A   Mostly Cloudy
1:35 PM 39.2 °F 32.5 °F 39.2 °F 100% 30.07 in 10.0 mi North 10.4 mph - N/A   Mostly Cloudy
1:55 PM 39.2 °F 30.8 °F 39.2 °F 100% 30.07 in 10.0 mi North 15.0 mph - N/A   Overcast
2:15 PM 39.2 °F 30.8 °F 39.2 °F 100% 30.08 in 10.0 mi NNW 15.0 mph - N/A   Overcast
2:35 PM 39.2 °F 30.8 °F 39.2 °F 100% 30.09 in 10.0 mi North 15.0 mph - N/A   Overcast
2:55 PM 39.2 °F 30.8 °F 39.2 °F 100% 30.10 in 10.0 mi NNW 15.0 mph - N/A   Overcast
3:15 PM 39.2 °F 30.8 °F 39.2 °F 100% 30.10 in 10.0 mi NNW 15.0 mph - N/A   Overcast
3:35 PM 39.2 °F 31.6 °F 39.2 °F 100% 30.11 in 10.0 mi NNW 12.7 mph 20.7 mph N/A   Overcast
3:55 PM 39.2 °F 30.5 °F 37.4 °F 93% 30.12 in 10.0 mi NNW 16.1 mph 23.0 mph N/A   Overcast
4:15 PM 39.2 °F 29.8 °F 37.4 °F 93% 30.12 in 10.0 mi NNW 18.4 mph - N/A   Overcast
4:35 PM 39.2 °F 30.5 °F 37.4 °F 93% 30.13 in 10.0 mi NNW 16.1 mph - N/A   Overcast
4:55 PM 39.2 °F 31.2 °F 37.4 °F 93% 30.14 in 10.0 mi NNW 13.8 mph - N/A   Overcast
5:15 PM 39.2 °F 30.8 °F 37.4 °F 93% 30.15 in 10.0 mi NNW 15.0 mph 24.2 mph N/A   Overcast
5:35 PM 39.2 °F 31.6 °F 37.4 °F 93% 30.16 in 10.0 mi NNW 12.7 mph 18.4 mph N/A   Overcast
5:55 PM 37.4 °F 28.5 °F 35.6 °F 93% 30.16 in 10.0 mi NNW 15.0 mph - N/A   Overcast
6:15 PM 37.4 °F 28.5 °F 37.4 °F 100% 30.16 in 10.0 mi NNW 15.0 mph - N/A   Overcast
6:35 PM 37.4 °F 29.3 °F 37.4 °F 100% 30.16 in 10.0 mi NNW 12.7 mph - N/A   Overcast
6:55 PM 37.4 °F 29.3 °F 37.4 °F 100% 30.17 in 10.0 mi NW 12.7 mph - N/A   Overcast
7:15 PM 37.4 °F 29.8 °F 37.4 °F 100% 30.17 in 10.0 mi NW 11.5 mph 18.4 mph N/A   Overcast
7:35 PM 37.4 °F 30.3 °F 37.4 °F 100% 30.17 in 10.0 mi NW 10.4 mph - N/A   Overcast
7:55 PM 37.4 °F 29.8 °F 37.4 °F 100% 30.17 in 10.0 mi NNW 11.5 mph 20.7 mph N/A   Overcast
8:15 PM 37.4 °F 29.3 °F 35.6 °F 93% 30.19 in 10.0 mi NNW 12.7 mph - N/A   Overcast
8:35 PM 37.4 °F 30.3 °F 35.6 °F 93% 30.18 in 10.0 mi NW 10.4 mph 16.1 mph N/A   Overcast
8:55 PM 37.4 °F 29.8 °F 35.6 °F 93% 30.18 in 10.0 mi NNW 11.5 mph - N/A   Overcast
9:15 PM 37.4 °F 29.8 °F 37.4 °F 100% 30.19 in 10.0 mi NW 11.5 mph - N/A   Overcast
9:35 PM 37.4 °F 29.3 °F 37.4 °F 100% 30.20 in 10.0 mi NW 12.7 mph - N/A   Overcast
9:55 PM 37.4 °F 29.8 °F 35.6 °F 93% 30.20 in 10.0 mi WNW 11.5 mph - N/A   Overcast
10:15 PM 37.4 °F 30.3 °F 35.6 °F 93% 30.20 in 10.0 mi WNW 10.4 mph - N/A   Overcast
10:35 PM 37.4 °F 30.3 °F 35.6 °F 93% 30.20 in 10.0 mi NW 10.4 mph - N/A   Overcast
10:55 PM 35.6 °F 29.2 °F 35.6 °F 100% 30.19 in 10.0 mi WNW 8.1 mph - N/A   Overcast
11:15 PM 35.6 °F 28.0 °F 35.6 °F 100% 30.19 in 10.0 mi NW 10.4 mph - N/A   Overcast
11:35 PM 35.6 °F 28.0 °F 35.6 °F 100% 30.19 in 10.0 mi WNW 10.4 mph - N/A   Overcast
11:55 PM 35.6 °F 27.5 °F 35.6 °F 100% 30.19 in 10.0 mi WNW 11.5 mph - N/A   Overcast